Oak Ridge, TN

1:44 PM EST on February 07, 2016 (GMT -0500)
Oak Ridge

Weather History for KOQT - March, 2014

Change the Weather History Date:

Friday, March 28, 2014

  Actual Average (KTYS) Record (KTYS)
Temperature  
Mean Temperature 56 °F 54 °F  
Max Temperature 62 °F 65 °F 85 °F (1907)
Min Temperature 51 °F 42 °F 24 °F (1955)
Degree Days  
Heating Degree Days 8 12  
Month to date heating degree days 427  
Since 1 July heating degree days 3323  
Cooling Degree Days 0 0  
Month to date cooling degree days 0  
Year to date cooling degree days 0  
Growing Degree Days 6 (Base 50)    
Moisture  
Dew Point 51 °F    
Average Humidity 85    
Maximum Humidity 94    
Minimum Humidity 28    
Precipitation  
Precipitation 0.25 in 0.15 in 2.75 in (1912)
Month to date precipitation 3.91  
Year to date precipitation 12.49  
Snow  
Snow 0.00 in 0.10 in - ()
Month to date snowfall 0.9  
Since 1 July snowfall 6.0  
Snow Depth -    
Sea Level Pressure  
Sea Level Pressure 30.07 in    
Wind  
Wind Speed 4 mph (WSW)    
Max Wind Speed 7 mph    
Max Gust Speed -    
Visibility 8 miles    
Events Rain    
T = Trace of Precipitation, MM = Missing Value Source: NWS Daily Summary

Daily Weather History Graph

Daily Weather History Graph

Search for Another Location

Airport or City:

Trip Planner

Search our weather history database for the weather conditions in past years. The results will help you decide how hot, cold, wet, or windy it might be!

Date:

Astronomy

Mar. 28, 2014 Rise Set
Actual Time 7:28 AM EDT 7:55 PM EDT
Civil Twilight 7:03 AM EDT 8:21 PM EDT
Nautical Twilight 6:33 AM EDT 8:51 PM EDT
Astronomical Twilight 6:02 AM EDT 9:22 PM EDT
Moon 5:55 AM EDT (3/28) 5:54 PM EDT (3/28)
Length of Visible Light 13h 17m
Length of Day
12h 26m
Waning Crescent, 6% of the Moon is Illuminated
Mar 28
Waning Crescent
Mar 30
New
Apr 7
First Quarter
Apr 15
Full
Apr 22
Last Quarter

Hourly Weather History & Observations

Time (EDT) Temp. Dew Point Humidity Pressure Visibility Wind Dir Wind Speed Gust Speed Precip Events Conditions
12:53 AM 60.1 °F 27.0 °F 28% 30.11 in 10.0 mi Variable 5.8 mph - N/A   Overcast
1:25 AM 52.0 °F 42.1 °F 69% 30.11 in 2.0 mi SW 5.8 mph - 0.05 in Rain Heavy Rain
1:38 AM 52.0 °F 43.0 °F 71% 30.11 in 6.0 mi West 4.6 mph - 0.09 in Rain Light Rain
1:53 AM 51.1 °F 44.1 °F 77% 30.11 in 10.0 mi Variable 5.8 mph - 0.09 in Rain Light Rain
2:53 AM 54.0 °F 45.0 °F 72% 30.07 in 10.0 mi Variable 4.6 mph - 0.00 in   Overcast
3:53 AM 54.0 °F 46.9 °F 77% 30.04 in 10.0 mi Variable 3.5 mph - 0.00 in Rain Light Rain
4:53 AM 54.0 °F 48.0 °F 80% 30.01 in 10.0 mi SSW 4.6 mph - 0.00 in Rain Light Rain
5:53 AM 55.0 °F 48.9 °F 80% 30.00 in 10.0 mi SW 6.9 mph - 0.01 in   Overcast
6:13 AM 55.0 °F 50.0 °F 83% 30.02 in 10.0 mi Variable 5.8 mph - N/A   Overcast
6:24 AM 54.0 °F 50.0 °F 86% 30.03 in 10.0 mi Variable 4.6 mph - N/A   Overcast
6:53 AM 54.0 °F 50.0 °F 86% 30.02 in 10.0 mi SW 3.5 mph - N/A   Overcast
7:00 AM 54.0 °F 50.0 °F 86% 30.04 in 10.0 mi WSW 4.6 mph - N/A   Overcast
7:53 AM 54.0 °F 50.0 °F 86% 30.05 in 10.0 mi SW 3.5 mph - N/A   Overcast
8:29 AM 53.1 °F 51.1 °F 93% 30.06 in 2.5 mi Calm Calm - 0.03 in Rain Light Rain
8:33 AM 54.0 °F 51.1 °F 90% 30.07 in 7.0 mi Calm Calm - 0.03 in Rain Light Rain
8:50 AM 53.6 °F 51.8 °F 94% 30.07 in 8.0 mi WNW 3.5 mph - 0.03 in   Overcast
8:53 AM 54.0 °F 51.1 °F 90% 30.06 in 9.0 mi West 3.5 mph - 0.03 in   Overcast
9:37 AM 54.0 °F 51.1 °F 90% 30.08 in 1.8 mi Calm Calm - 0.01 in Rain Heavy Rain
9:53 AM 54.0 °F 52.0 °F 93% 30.09 in 2.0 mi Calm Calm - 0.07 in Rain Rain
10:11 AM 55.0 °F 53.1 °F 93% 30.09 in 4.0 mi Calm Calm - 0.02 in Rain Light Rain
10:37 AM 55.0 °F 53.1 °F 93% 30.09 in 2.5 mi Calm Calm - 0.04 in Rain Light Rain
10:45 AM 55.0 °F 53.1 °F 93% 30.09 in 4.0 mi West 3.5 mph - 0.05 in Rain Light Rain
10:53 AM 55.0 °F 53.1 °F 93% 30.09 in 4.0 mi WSW 4.6 mph - 0.05 in Rain Light Rain
11:09 AM 55.0 °F 53.1 °F 93% 30.11 in 8.0 mi WSW 4.6 mph - 0.00 in   Overcast
11:53 AM 55.9 °F 54.0 °F 93% 30.10 in 5.0 mi West 4.6 mph - 0.00 in Rain Light Rain
12:07 PM 55.9 °F 54.0 °F 93% 30.10 in 6.0 mi SSW 3.5 mph - 0.00 in   Overcast
12:19 PM 57.0 °F 55.0 °F 93% 30.10 in 8.0 mi WSW 3.5 mph - 0.00 in   Overcast
12:53 PM 57.0 °F 54.0 °F 89% 30.09 in 10.0 mi WSW 3.5 mph - 0.00 in   Overcast
1:11 PM 57.0 °F 54.0 °F 89% 30.09 in 10.0 mi Calm Calm - N/A   Overcast
1:43 PM 57.9 °F 55.0 °F 90% 30.09 in 10.0 mi WSW 5.8 mph - N/A   Overcast
1:53 PM 59.0 °F 55.0 °F 87% 30.09 in 10.0 mi Variable 4.6 mph - N/A   Overcast
2:53 PM 59.0 °F 55.0 °F 87% 30.06 in 10.0 mi West 4.6 mph - N/A   Overcast
3:53 PM 61.0 °F 55.0 °F 81% 30.06 in 10.0 mi Variable 5.8 mph - N/A   Overcast
4:53 PM 61.0 °F 55.0 °F 81% 30.05 in 10.0 mi Calm Calm - N/A   Overcast
5:53 PM 61.0 °F 55.0 °F 81% 30.05 in 10.0 mi NW 3.5 mph - N/A   Overcast
6:20 PM 62.1 °F 55.0 °F 78% 30.05 in 10.0 mi Variable 3.5 mph - N/A   Overcast
6:53 PM 62.1 °F 54.0 °F 75% 30.04 in 10.0 mi NW 3.5 mph - N/A   Overcast
7:53 PM 61.0 °F 54.0 °F 78% 30.04 in 10.0 mi Calm Calm - N/A   Overcast
8:53 PM 59.0 °F 55.0 °F 87% 30.06 in 10.0 mi Calm Calm - N/A   Overcast
9:53 PM 57.9 °F 55.0 °F 90% 30.06 in 10.0 mi Calm Calm - N/A   Overcast
10:53 PM 57.0 °F 54.0 °F 89% 30.06 in 10.0 mi Calm Calm - N/A   Overcast
11:53 PM 55.9 °F 54.0 °F 93% 30.05 in 9.0 mi Calm Calm - N/A   Overcast